Data for 10/28/2016

Time Sea-Level Adjusted Pressure Absolute Pressure Temperature Relative Humidity Dew Point   
(mb) (inHg) (mb) (inHg) (C) (F) (%) (C) (F)
00:05 1013 29.91 842 24.86 17.2 62.9 29 -1 30.3
00:10 1013 29.91 842 24.86 17.1 62.8 30 -0.5 31.1
00:15 1013 29.91 842 24.86 16.9 62.5 30 -0.4 31.2
00:20 1013 29.91 842 24.86 16.9 62.4 30 -0.8 30.6
00:25 1013 29.91 842 24.86 16.8 62.2 32 -0.1 31.8
00:30 1013 29.91 842 24.86 16.3 61.4 33 -0.1 31.9
00:35 1013 29.91 842 24.86 16.2 61.1 32 -0.3 31.5
00:40 1013 29.91 842 24.86 16.2 61.2 32 -0.3 31.5
00:45 1013 29.91 842 24.86 16.3 61.3 32 -0.2 31.7
00:50 1013 29.91 842 24.86 16.6 61.8 32 -0.2 31.7
00:55 1013 29.91 842 24.86 16.6 61.9 32 -0.1 31.8
01:00 1013 29.91 842 24.86 16.6 61.9 32 0.1 32.2
01:05 1013 29.91 842 24.86 16.5 61.6 32 0 32
01:10 1013 29.91 843 24.89 16.5 61.6 33 0.1 32.1
01:15 1013 29.91 842 24.86 16.5 61.6 33 0.1 32.1
01:20 1013 29.91 842 24.86 16.5 61.7 32 -0.2 31.7
01:25 1013 29.91 842 24.86 16.7 62.1 32 -0.1 31.8
01:30 1013 29.91 842 24.86 16.5 61.6 35 1.2 34.2
01:35 1013 29.91 843 24.89 15.8 60.5 35 0.5 32.9
01:40 1013 29.91 842 24.86 15.9 60.6 33 -0.1 31.9
01:45 1013 29.91 842 24.86 16.3 61.3 32 -0.2 31.7
01:50 1013 29.91 842 24.86 16.3 61.4 32 -0.4 31.3
01:55 1013 29.91 842 24.86 16.7 62 31 -0.5 31.2
02:00 1013 29.91 842 24.86 16.8 62.2 31 -0.4 31.3
02:05 1013 29.91 842 24.86 16.7 62 31 -0.4 31.3
02:10 1013 29.91 843 24.89 16.6 61.8 32 -0.1 31.8
02:15 1013 29.91 843 24.89 16.2 61.2 33 -0 32
02:20 1013 29.91 843 24.89 16 60.8 33 -0.1 31.8
02:25 1013 29.91 843 24.89 16.1 61 32 -0.7 30.8
02:30 1013 29.91 843 24.89 16.6 61.9 31 -0.6 31
02:35 1014 29.94 843 24.89 16.7 62.1 30 -0.6 30.9
02:40 1014 29.94 843 24.89 16.7 62.1 31 -0.4 31.3
02:45 1014 29.94 843 24.89 16.6 61.9 32 -0.2 31.6
02:50 1014 29.94 843 24.89 16.5 61.6 32 -0.2 31.6
02:55 1014 29.94 843 24.89 16.4 61.4 32 -0.3 31.5
03:00 1014 29.94 843 24.89 16.3 61.4 32 -0.3 31.5
03:05 1014 29.94 843 24.89 16.3 61.4 32 -0.2 31.6
03:10 1014 29.94 843 24.89 16.2 61.1 33 -0.1 31.8
03:15 1014 29.94 843 24.89 16.2 61.1 32 -0.3 31.5
03:20 1014 29.94 843 24.89 16.3 61.3 32 -0.2 31.6
03:25 1014 29.94 843 24.89 16.4 61.5 32 -0.1 31.9
03:30 1014 29.94 843 24.89 16.4 61.4 32 -0.2 31.7
03:35 1014 29.94 843 24.89 16.3 61.4 33 -0.1 31.9
03:40 1014 29.94 843 24.89 16.2 61.1 33 -0.2 31.7
03:45 1014 29.94 843 24.89 16.2 61.2 33 -0.1 31.8
03:50 1014 29.94 843 24.89 16.1 61 32 -0.3 31.5
03:55 1014 29.94 843 24.89 16.2 61.2 33 -0.1 31.9
04:00 1014 29.94 843 24.89 16 60.9 33 -0.1 31.7
04:05 1014 29.94 843 24.89 16.1 61 33 -0 31.9
04:10 1014 29.94 843 24.89 16.1 60.9 34 0.2 32.4
04:15 1014 29.94 843 24.89 16 60.8 34 0.1 32.3
04:20 1014 29.94 843 24.89 16 60.8 34 0.2 32.3
04:25 1014 29.94 843 24.89 15.9 60.6 34 0.3 32.6
04:30 1014 29.94 843 24.89 15.8 60.4 35 0.6 33.1
04:35 1014 29.94 843 24.89 15.7 60.2 36 0.6 33
04:40 1014 29.94 843 24.89 15.8 60.5 35 0.5 33
04:45 1014 29.94 843 24.89 15.7 60.2 36 0.8 33.4
04:50 1014 29.94 843 24.89 15.7 60.2 36 0.8 33.4
04:55 1014 29.94 843 24.89 15.7 60.2 35 0.4 32.7
05:00 1014 29.94 843 24.89 15.7 60.3 36 0.8 33.4
05:05 1014 29.94 843 24.89 15.7 60.2 35 0.4 32.7
05:10 1014 29.94 843 24.89 15.6 60.2 35 0.2 32.4
05:15 1014 29.94 843 24.89 15.7 60.2 36 0.7 33.2
05:20 1014 29.94 843 24.89 15.6 60.1 36 0.7 33.2
05:25 1014 29.94 843 24.89 15.6 60.1 36 0.8 33.5
05:30 1014 29.94 843 24.89 15.5 60 37 1.2 34.1
05:35 1014 29.94 843 24.89 15.3 59.6 39 1.5 34.7
05:40 1014 29.94 843 24.89 15 59.1 40 1.7 35
05:45 1014 29.94 843 24.89 14.8 58.7 41 1.7 35.1
05:50 1014 29.94 843 24.89 14.7 58.5 41 1.9 35.4
05:55 1014 29.94 843 24.89 14.7 58.4 42 1.9 35.3
06:00 1014 29.94 843 24.89 14.7 58.5 42 1.9 35.5
06:05 1014 29.94 843 24.89 14.7 58.4 41 1.7 35
06:10 1014 29.94 843 24.89 14.8 58.6 41 1.6 34.9
06:15 1014 29.94 843 24.89 14.9 58.8 41 1.9 35.5
06:20 1014 29.94 843 24.89 14.8 58.6 41 1.7 35.1
06:25 1014 29.94 843 24.89 14.8 58.6 42 1.9 35.5
06:30 1014 29.94 843 24.89 14.9 58.7 41 1.8 35.3
06:35 1014 29.94 843 24.89 14.8 58.7 42 2.2 36
06:40 1014 29.94 844 24.92 14.6 58.2 43 2.2 36
06:45 1014 29.94 844 24.92 14.6 58.2 42 2 35.5
06:50 1015 29.97 844 24.92 14.7 58.5 42 2 35.5
06:55 1015 29.97 844 24.92 14.7 58.4 43 2.3 36.1
07:00 1015 29.97 844 24.92 14.6 58.2 43 2.4 36.3
07:05 1015 29.97 844 24.92 14.4 57.9 47 3.4 38.1
07:10 1015 29.97 844 24.92 13.9 56.9 49 3.3 37.9
07:15 1015 29.97 844 24.92 13.7 56.6 48 3 37.5
07:20 1015 29.97 844 24.92 13.7 56.7 49 3.2 37.7
07:25 1015 29.97 844 24.92 13.7 56.6 50 3.4 38.1
07:30 1015 29.97 844 24.92 13.6 56.4 50 3.5 38.3
07:35 1015 29.97 844 24.92 13.5 56.3 51 3.6 38.6
07:40 1015 29.97 844 24.92 13.4 56.1 52 3.7 38.7
07:45 1015 29.97 844 24.92 13.4 56 51 3.6 38.5
07:50 1015 29.97 844 24.92 13.3 56 52 3.7 38.7
07:55 1015 29.97 844 24.92 13.3 56 50 3.3 38
08:00 1015 29.97 845 24.95 13.1 55.5 50 3.1 37.5
08:05 1016 30 845 24.95 13 55.3 52 3.3 38
08:10 1016 30 845 24.95 12.9 55.2 52 3.2 37.8
08:15 1016 30 845 24.95 12.8 55 52 3.1 37.7
08:20 1016 30 845 24.95 12.6 54.7 52 3.1 37.6
08:25 1016 30 845 24.95 12.5 54.5 53 3.3 37.9
08:30 1016 30 845 24.95 12.4 54.3 54 3.3 37.9
08:35 1016 30 845 24.95 12.2 54 54 3.3 38
08:40 1016 30 845 24.95 12 53.6 55 3.4 38.1
08:45 1016 30 845 24.95 11.9 53.4 56 3.3 38
08:50 1016 30 845 24.95 11.8 53.3 56 3.4 38.2
08:55 1016 30 845 24.95 11.8 53.2 57 3.6 38.5
09:00 1016 30 845 24.95 11.9 53.3 57 3.7 38.7
09:05 1016 30 846 24.98 11.7 53 59 4.1 39.3
09:10 1017 30.03 846 24.98 11.2 52.2 61 4 39.3
09:15 1017 30.03 846 24.98 11 51.8 63 4.2 39.5
09:20 1017 30.03 846 24.98 10.9 51.5 65 4.5 40.2
09:25 1017 30.03 846 24.98 10.8 51.4 68 5.1 41.3
09:30 1017 30.03 846 24.98 10.5 50.9 69 5 41
09:35 1017 30.03 846 24.98 10.3 50.5 71 5.2 41.3
09:40 1017 30.03 846 24.98 10 50 74 5.6 42
09:45 1017 30.03 846 24.98 9.9 49.8 74 5.6 42
09:50 1017 30.03 846 24.98 9.9 49.8 74 5.4 41.8
09:55 1017 30.03 846 24.98 9.8 49.6 75 5.5 42
10:00 1017 30.03 846 24.98 9.6 49.2 76 5.5 41.9
10:05 1017 30.03 846 24.98 9.6 49.3 76 5.7 42.2
10:10 1017 30.03 846 24.98 9.7 49.5 76 5.8 42.5
10:15 1017 30.03 846 24.98 9.5 49.2 77 5.7 42.2
10:20 1017 30.03 846 24.98 9.5 49 77 5.6 42.1
10:25 1017 30.03 847 25.01 9.4 49 78 5.8 42.5
10:30 1017 30.03 847 25.01 9.5 49.1 80 6.3 43.3
10:35 1018 30.06 847 25.01 9.5 49.2 81 6.5 43.7
10:40 1018 30.06 847 25.01 9.5 49.2 81 6.4 43.5
10:45 1018 30.06 847 25.01 9.5 49 79 6.1 42.9
10:50 1018 30.06 847 25.01 9.4 49 80 6.2 43.1
10:55 1018 30.06 847 25.01 9.3 48.8 78 5.7 42.2
11:00 1018 30.06 847 25.01 9.1 48.4 79 5.7 42.3
11:05 1018 30.06 847 25.01 8.9 48 82 5.9 42.7
11:10 1018 30.06 847 25.01 8.7 47.7 82 5.9 42.6
11:15 1018 30.06 847 25.01 8.7 47.6 83 6 42.8
11:20 1018 30.06 847 25.01 8.6 47.5 84 6.1 43
11:25 1018 30.06 847 25.01 8.7 47.6 84 6.1 43
11:30 1018 30.06 848 25.04 8.6 47.4 85 6.1 43
11:35 1018 30.06 848 25.04 8.3 47 84 5.8 42.4
11:40 1018 30.06 848 25.04 8.1 46.7 85 5.8 42.4
11:45 1018 30.06 848 25.04 8 46.5 85 5.8 42.4
11:50 1018 30.06 847 25.01 8 46.3 85 5.7 42.2
11:55 1018 30.06 847 25.01 7.9 46.3 87 5.9 42.6
12:00 1018 30.06 847 25.01 8 46.4 86 5.9 42.6
12:05 1018 30.06 847 25.01 8.3 46.9 84 5.8 42.5
12:10 1018 30.06 847 25.01 8.3 46.9 84 5.7 42.3
12:15 1018 30.06 847 25.01 8.3 47 84 5.7 42.3
12:20 1018 30.06 847 25.01 8.6 47.4 85 6.1 43
12:25 1018 30.06 847 25.01 8.7 47.6 82 5.9 42.6
12:30 1018 30.06 847 25.01 8.7 47.6 83 6 42.8
12:35 1018 30.06 847 25.01 8.7 47.6 82 5.8 42.5
12:40 1018 30.06 847 25.01 8.8 47.8 83 6.1 43
12:45 1018 30.06 847 25.01 8.9 48 81 5.7 42.3
12:50 1018 30.06 847 25.01 8.9 47.9 82 5.9 42.6
12:55 1018 30.06 847 25.01 8.7 47.6 82 5.9 42.5
13:00 1018 30.06 847 25.01 8.7 47.6 82 5.9 42.5
13:05 1018 30.06 847 25.01 8.6 47.5 82 5.6 42.2
13:10 1018 30.06 847 25.01 8.4 47.1 82 5.6 42.1
13:15 1018 30.06 847 25.01 8.3 47 82 5.4 41.8
13:20 1018 30.06 847 25.01 8.4 47.2 82 5.6 42.1
13:25 1018 30.06 847 25.01 8.7 47.6 81 5.6 42.1
13:30 1018 30.06 847 25.01 8.6 47.4 82 5.6 42.1
13:35 1018 30.06 847 25.01 8.4 47.1 82 5.4 41.8
13:40 1018 30.06 847 25.01 8.5 47.3 83 5.7 42.3
13:45 1018 30.06 847 25.01 8.5 47.4 84 6 42.8
13:50 1018 30.06 847 25.01 8.6 47.5 82 5.7 42.2
13:55 1018 30.06 847 25.01 8.6 47.4 81 5.5 41.8
14:00 1018 30.06 847 25.01 8.5 47.2 84 5.8 42.5
14:05 1018 30.06 847 25.01 8.6 47.5 81 5.6 42.1
14:10 1018 30.06 847 25.01 8.5 47.4 83 5.9 42.6
14:15 1018 30.06 847 25.01 8.4 47.2 83 5.7 42.3
14:20 1018 30.06 847 25.01 8.7 47.6 84 6.1 43
14:25 1018 30.06 847 25.01 9 48.1 82 6.1 43
14:30 1018 30.06 847 25.01 8.9 48 82 6.1 42.9
14:35 1018 30.06 847 25.01 8.9 48 82 6 42.8
14:40 1018 30.06 847 25.01 9 48.1 79 5.6 42.1
14:45 1018 30.06 847 25.01 8.8 47.9 80 5.6 42.1
14:50 1018 30.06 847 25.01 8.8 47.8 80 5.6 42
14:55 1018 30.06 847 25.01 9 48.1 82 6.1 42.9
15:00 1018 30.06 847 25.01 9.2 48.6 81 6.1 43.1
15:05 1018 30.06 847 25.01 9.3 48.8 80 6 42.8
15:10 1018 30.06 847 25.01 9.4 48.9 80 6.2 43.2
15:15 1018 30.06 847 25.01 9.4 48.8 81 6.3 43.3
15:20 1018 30.06 847 25.01 9.3 48.8 80 6.1 43.1
15:25 1018 30.06 847 25.01 9.4 48.9 81 6.3 43.3
15:30 1018 30.06 847 25.01 9.4 48.9 81 6.2 43.2
15:35 1018 30.06 847 25.01 9.3 48.8 80 6.1 43
15:40 1018 30.06 847 25.01 9 48.1 82 6.1 42.9
15:45 1018 30.06 847 25.01 8.8 47.9 83 6 42.9
15:50 1018 30.06 847 25.01 9 48.2 82 6.2 43.1
15:55 1018 30.06 847 25.01 9 48.2 81 6 42.8
16:00 1018 30.06 847 25.01 8.9 48 83 6.1 43
16:05 1018 30.06 847 25.01 8.8 47.8 83 6 42.9
16:10 1018 30.06 847 25.01 8.7 47.7 84 6.2 43.1
16:15 1018 30.06 847 25.01 8.7 47.7 83 6 42.9
16:20 1018 30.06 847 25.01 8.8 47.8 84 6.2 43.1
16:25 1018 30.06 847 25.01 8.9 47.9 84 6.3 43.4
16:30 1018 30.06 847 25.01 8.9 48 83 6.2 43.2
16:35 1018 30.06 847 25.01 8.8 47.9 83 6.2 43.1
16:40 1018 30.06 847 25.01 8.8 47.8 84 6.2 43.2
16:45 1018 30.06 847 25.01 8.8 47.8 84 6.2 43.2
16:50 1018 30.06 847 25.01 8.7 47.7 84 6.1 43.1
16:55 1018 30.06 847 25.01 8.7 47.6 84 6.1 43
17:00 1018 30.06 847 25.01 8.7 47.6 84 6.1 43
17:05 1018 30.06 847 25.01 8.7 47.7 85 6.3 43.4
17:10 1018 30.06 847 25.01 8.7 47.6 85 6.3 43.4
17:15 1018 30.06 847 25.01 8.5 47.3 86 6.2 43.2
17:20 1018 30.06 847 25.01 8.4 47.1 85 6 42.7
17:25 1018 30.06 847 25.01 8.3 47 85 5.9 42.7
17:30 1018 30.06 847 25.01 8.3 47 85 5.9 42.7
17:35 1018 30.06 847 25.01 8.3 46.9 85 5.9 42.7
17:40 1018 30.06 847 25.01 8.3 46.9 85 5.9 42.6
17:45 1018 30.06 847 25.01 8.2 46.8 84 5.8 42.4
17:50 1018 30.06 847 25.01 8.2 46.8 85 5.8 42.4
17:55 1018 30.06 848 25.04 8.3 46.9 84 5.7 42.2
18:00 1018 30.06 847 25.01 8.3 46.9 83 5.5 41.9
18:05 1018 30.06 847 25.01 8.3 46.9 83 5.6 42.1
18:10 1018 30.06 847 25.01 8.2 46.8 84 5.7 42.2
18:15 1018 30.06 847 25.01 8.2 46.7 84 5.7 42.3
18:20 1018 30.06 847 25.01 8.1 46.6 85 5.7 42.3
18:25 1018 30.06 847 25.01 8 46.5 84 5.6 42
18:30 1018 30.06 847 25.01 8 46.4 85 5.6 42
18:35 1018 30.06 847 25.01 8 46.3 84 5.5 41.9
18:40 1018 30.06 847 25.01 7.9 46.3 84 5.4 41.7
18:45 1018 30.06 847 25.01 7.9 46.2 83 5.2 41.3
18:50 1018 30.06 847 25.01 7.9 46.2 83 5.2 41.4
18:55 1018 30.06 847 25.01 7.9 46.2 82 5.1 41.2
19:00 1018 30.06 847 25.01 7.9 46.1 83 5.1 41.2
19:05 1018 30.06 847 25.01 7.8 46.1 83 5.1 41.2
19:10 1018 30.06 847 25.01 7.8 46 83 5.1 41.3
19:15 1018 30.06 847 25.01 7.7 45.9 84 5.2 41.3
19:20 1018 30.06 848 25.04 7.7 45.9 83 5.1 41.1
19:25 1018 30.06 848 25.04 7.7 45.9 84 5.2 41.3
19:30 1018 30.06 848 25.04 7.8 46.1 83 5.1 41.2
19:35 1018 30.06 848 25.04 7.8 46.1 83 5.1 41.3
19:40 1018 30.06 848 25.04 7.8 46 83 5.1 41.1
19:45 1018 30.06 847 25.01 7.7 45.9 83 5 41
19:50 1018 30.06 847 25.01 7.7 45.8 83 5 41
19:55 1018 30.06 847 25.01 7.7 45.8 82 4.9 40.8
20:00 1018 30.06 847 25.01 7.6 45.7 83 4.8 40.7
20:05 1018 30.06 847 25.01 7.5 45.5 82 4.7 40.4
20:10 1018 30.06 847 25.01 7.5 45.5 81 4.5 40.1
20:15 1018 30.06 847 25.01 7.5 45.6 80 4.4 39.9
20:20 1018 30.06 847 25.01 7.5 45.6 80 4.3 39.7
20:25 1018 30.06 847 25.01 7.5 45.5 80 4.3 39.7
20:30 1018 30.06 847 25.01 7.5 45.5 80 4.4 39.8
20:35 1018 30.06 847 25.01 7.4 45.4 81 4.4 39.9
20:40 1018 30.06 847 25.01 7.4 45.3 81 4.4 39.9
20:45 1018 30.06 847 25.01 7.4 45.2 80 4.2 39.6
20:50 1018 30.06 847 25.01 7.4 45.3 79 4 39.2
20:55 1018 30.06 847 25.01 7.4 45.4 78 3.8 38.9
21:00 1018 30.06 847 25.01 7.5 45.5 76 3.5 38.3
21:05 1018 30.06 847 25.01 7.6 45.7 75 3.4 38.1
21:10 1018 30.06 847 25.01 7.6 45.7 74 3.3 38
21:15 1018 30.06 847 25.01 7.5 45.6 76 3.5 38.4
21:20 1018 30.06 847 25.01 7.5 45.4 76 3.5 38.4
21:25 1018 30.06 847 25.01 7.4 45.3 76 3.5 38.3
21:30 1018 30.06 847 25.01 7.3 45.2 76 3.4 38.1
21:35 1018 30.06 847 25.01 7.3 45.2 76 3.5 38.2
21:40 1018 30.06 847 25.01 7.2 45 77 3.4 38.2
21:45 1018 30.06 847 25.01 7.1 44.8 79 3.7 38.6
21:50 1018 30.06 847 25.01 7 44.6 80 3.7 38.7
21:55 1018 30.06 847 25.01 6.9 44.3 81 3.8 38.8
22:00 1018 30.06 847 25.01 6.7 44.1 82 3.8 38.9
22:05 1018 30.06 847 25.01 6.7 44 82 3.7 38.7
22:10 1018 30.06 847 25.01 6.6 43.9 80 3.5 38.2
22:15 1018 30.06 847 25.01 6.6 43.8 80 3.4 38.2
22:20 1018 30.06 847 25.01 6.5 43.7 81 3.5 38.4
22:25 1018 30.06 847 25.01 6.4 43.6 82 3.7 38.6
22:30 1018 30.06 847 25.01 6.4 43.5 83 3.7 38.6
22:35 1018 30.06 847 25.01 6.3 43.4 84 3.8 38.8
22:40 1018 30.06 847 25.01 6.3 43.3 84 3.7 38.7
22:45 1018 30.06 847 25.01 6.3 43.3 84 3.8 38.9
22:50 1018 30.06 847 25.01 6.2 43.1 85 3.8 38.8
22:55 1018 30.06 847 25.01 6.1 43.1 85 3.8 38.8
23:00 1018 30.06 847 25.01 6.2 43.1 85 3.8 38.8
23:05 1018 30.06 847 25.01 6.1 43.1 85 3.8 38.8
23:10 1018 30.06 847 25.01 6.2 43.1 84 3.7 38.6
23:15 1018 30.06 847 25.01 6.3 43.3 84 3.7 38.7
23:20 1018 30.06 847 25.01 6.3 43.4 83 3.6 38.5
23:25 1018 30.06 847 25.01 6.3 43.4 83 3.6 38.4
23:30 1018 30.06 847 25.01 6.3 43.3 83 3.7 38.7
23:35 1018 30.06 847 25.01 6.3 43.3 84 3.7 38.7
23:40 1018 30.06 847 25.01 6.2 43.2 85 3.8 38.9
23:45 1018 30.06 847 25.01 6.2 43.2 84 3.8 38.8
23:50 1018 30.06 847 25.01 6.3 43.3 83 3.7 38.6
23:55 1018 30.06 847 25.01 6.3 43.4 85 4 39.1
24:00 1018 30.06 847 25.01 6.3 43.3 84 3.7 38.7